| time (UTC) | temp F | wind direction | speed MPH | gust MPH | rain 1hr in | rain 24hr in | rain mn in | humidity % | barometer mb |
| 20260506172350 | 60 | 261 | 4.0 | 5.0 | 0.00 | 0.24 | 0.24 | 99 | 989.7 |
| 20260506171847 | 61 | 224 | 4.0 | 5.0 | 0.00 | 0.24 | 0.24 | 99 | 989.9 |
| 20260506171344 | 60 | 253 | 3.0 | 3.0 | 0.00 | 0.24 | 0.24 | 99 | 989.9 |
| 20260506170842 | 60 | 239 | 3.0 | 5.0 | 0.00 | 0.24 | 0.24 | 99 | 990.3 |
| 20260506170338 | 60 | 217 | 5.0 | 7.0 | 0.00 | 0.24 | 0.24 | 99 | 990.3 |
| 20260506165837 | 60 | 255 | 4.0 | 6.0 | 0.00 | 0.24 | 0.24 | 99 | 990.1 |
| 20260506165335 | 60 | 295 | 8.0 | 9.0 | 0.00 | 0.24 | 0.24 | 99 | 990.0 |
| 20260506164831 | 61 | 267 | 1.0 | 2.0 | 0.00 | 0.24 | 0.24 | 99 | 990.1 |
| 20260506164328 | 61 | 223 | 3.0 | 5.0 | 0.00 | 0.24 | 0.24 | 99 | 990.2 |
| 20260506163825 | 61 | 257 | 5.0 | 6.0 | 0.00 | 0.24 | 0.24 | 99 | 990.0 |
| 20260506163320 | 61 | 241 | 7.0 | 7.0 | 0.00 | 0.24 | 0.24 | 99 | 989.6 |
| 20260506162815 | 61 | 85 | 2.0 | 3.0 | 0.07 | 0.24 | 0.24 | 99 | 989.7 |
| 20260506162314 | 61 | 129 | 3.0 | 3.0 | 0.07 | 0.24 | 0.24 | 99 | 989.9 |
| 20260506161811 | 61 | 167 | 2.0 | 2.0 | 0.00 | 0.23 | 0.23 | 99 | 989.9 |
| 20260506161308 | 60 | 149 | 2.0 | 2.0 | 0.05 | 0.23 | 0.23 | 99 | 989.8 |
| 20260506160806 | 60 | 265 | 5.0 | 6.0 | 0.05 | 0.23 | 0.23 | 99 | 990.1 |
| 20260506160302 | 60 | 174 | 5.0 | 6.0 | 0.07 | 0.22 | 0.22 | 99 | 990.5 |
| 20260506155801 | 60 | 152 | 3.0 | 5.0 | 0.07 | 0.22 | 0.22 | 99 | 990.8 |
| 20260506155257 | 60 | 178 | 2.0 | 3.0 | 0.05 | 0.21 | 0.21 | 99 | 991.1 |
| 20260506153410 | 60 | 211 | 3.0 | 5.0 | 0.12 | 0.18 | 0.18 | 99 | 991.3 |
| 20260506152907 | 60 | 189 | 2.0 | 2.0 | 0.12 | 0.17 | 0.17 | 99 | 991.3 |
| 20260506152404 | 60 | 213 | 2.0 | 2.0 | 0.19 | 0.16 | 0.16 | 99 | 991.4 |
| 20260506151903 | 60 | 218 | 2.0 | 2.0 | 0.14 | 0.14 | 0.14 | 99 | 991.5 |
| 20260506151359 | 60 | 255 | 2.0 | 2.0 | 0.12 | 0.13 | 0.13 | 99 | 991.3 |
| 20260506150857 | 60 | 234 | 3.0 | 5.0 | 0.17 | 0.12 | 0.12 | 99 | 991.2 |
| 20260506150353 | 60 | 149 | 5.0 | 8.0 | 0.19 | 0.11 | 0.11 | 99 | 991.2 |
| 20260506145849 | 60 | 253 | 2.0 | 3.0 | 0.07 | 0.09 | 0.09 | 99 | 991.3 |
| 20260506145345 | 61 | 252 | 2.0 | 3.0 | 0.12 | 0.09 | 0.09 | 99 | 991.1 |
| 20260506144844 | 61 | 213 | 3.0 | 3.0 | 0.05 | 0.08 | 0.08 | 98 | 991.1 |
| 20260506144340 | 61 | 230 | 0.0 | 0.0 | 0.07 | 0.07 | 0.07 | 98 | 991.1 |
| 20260506143838 | 61 | 197 | 0.0 | 2.0 | 0.12 | 0.07 | 0.07 | 97 | 991.1 |
| 20260506143335 | 61 | 251 | 3.0 | 3.0 | 0.12 | 0.06 | 0.06 | 97 | 991.1 |
| 20260506142833 | 61 | 230 | 3.0 | 3.0 | 0.12 | 0.05 | 0.05 | 96 | 991.2 |
| 20260506142331 | 61 | 237 | 3.0 | 3.0 | 0.12 | 0.04 | 0.04 | 96 | 991.2 |
| 20260506141829 | 62 | 215 | 2.0 | 3.0 | 0.12 | 0.03 | 0.03 | 95 | 991.5 |
| 20260506141327 | 62 | 306 | 2.0 | 3.0 | 0.12 | 0.02 | 0.02 | 93 | 991.5 |
| 20260506140825 | 63 | 220 | 1.0 | 1.0 | 0.07 | 0.01 | 0.01 | 92 | 991.4 |
| 20260506140321 | 63 | 176 | 2.0 | 2.0 | 0.00 | 0.00 | 0.00 | 89 | 991.4 |
| 20260506135818 | 63 | 231 | 5.0 | 6.0 | 0.00 | 0.00 | 0.00 | 89 | 991.2 |
| 20260506135314 | 64 | 221 | 3.0 | 3.0 | 0.00 | 0.00 | 0.00 | 88 | 991.1 |
| 20260506134811 | 64 | 245 | 5.0 | 7.0 | 0.00 | 0.00 | 0.00 | 87 | 991.1 |
| 20260506134308 | 64 | 224 | 3.0 | 3.0 | 0.00 | 0.00 | 0.00 | 86 | 991.1 |
| 20260506133805 | 65 | 228 | 4.0 | 5.0 | 0.00 | 0.00 | 0.00 | 87 | 991.1 |
| 20260506133301 | 65 | 265 | 3.0 | 3.0 | 0.00 | 0.00 | 0.00 | 85 | 991.2 |
| 20260506132758 | 64 | 246 | 4.0 | 5.0 | 0.00 | 0.00 | 0.00 | 86 | 991.2 |
| 20260506132255 | 64 | 272 | 3.0 | 3.0 | 0.00 | 0.00 | 0.00 | 85 | 991.3 |
| 20260506131754 | 64 | 260 | 3.0 | 3.0 | 0.00 | 0.00 | 0.00 | 86 | 991.5 |
| 20260506131249 | 64 | 265 | 2.0 | 2.0 | 0.00 | 0.00 | 0.00 | 85 | 991.2 |
| 20260506130746 | 64 | 259 | 5.0 | 7.0 | 0.00 | 0.00 | 0.00 | 85 | 991.1 |
| 20260506130243 | 64 | 227 | 2.0 | 3.0 | 0.00 | 0.00 | 0.00 | 84 | 991.3 |
| 20260506125741 | 65 | 264 | 4.0 | 6.0 | 0.00 | 0.00 | 0.00 | 83 | 991.4 |
| 20260506125239 | 65 | 254 | 3.0 | 3.0 | 0.00 | 0.00 | 0.00 | 83 | 991.5 |
| 20260506124737 | 66 | 276 | 3.0 | 3.0 | 0.00 | 0.00 | 0.00 | 81 | 991.7 |
| 20260506124234 | 65 | 238 | 5.0 | 6.0 | 0.00 | 0.00 | 0.00 | 81 | 991.5 |
| 20260506123731 | 66 | 131 | 7.0 | 9.0 | 0.00 | 0.00 | 0.00 | 81 | 991.4 |
| 20260506123230 | 66 | 250 | 3.0 | 3.0 | 0.00 | 0.00 | 0.00 | 81 | 991.3 |
| 20260506122726 | 66 | 222 | 2.0 | 2.0 | 0.00 | 0.00 | 0.00 | 80 | 991.3 |
| 20260506122224 | 66 | 237 | 2.0 | 2.0 | 0.00 | 0.00 | 0.00 | 80 | 991.0 |
| 20260506121722 | 66 | 259 | 2.0 | 2.0 | 0.00 | 0.00 | 0.00 | 80 | 991.0 |
| 20260506121218 | 66 | 259 | 1.0 | 2.0 | 0.00 | 0.00 | 0.00 | 80 | 991.1 |
| 20260506120716 | 66 | 242 | 5.0 | 7.0 | 0.00 | 0.00 | 0.00 | 81 | 990.9 |
| 20260506120213 | 66 | 226 | 5.0 | 7.0 | 0.00 | 0.00 | 0.00 | 80 | 991.1 |
| 20260506115711 | 66 | 252 | 1.0 | 2.0 | 0.00 | 0.00 | 0.00 | 80 | 990.7 |
| 20260506115209 | 66 | 244 | 2.0 | 3.0 | 0.00 | 0.00 | 0.00 | 81 | 990.7 |
| 20260506114706 | 66 | 231 | 2.0 | 2.0 | 0.00 | 0.00 | 0.00 | 80 | 990.8 |
| 20260506114204 | 65 | 183 | 3.0 | 5.0 | 0.00 | 0.00 | 0.00 | 80 | 990.7 |
| 20260506113703 | 65 | 254 | 4.0 | 6.0 | 0.00 | 0.00 | 0.00 | 81 | 990.7 |
| 20260506113200 | 65 | 270 | 3.0 | 5.0 | 0.00 | 0.00 | 0.00 | 80 | 990.7 |
| 20260506112655 | 65 | 271 | 3.0 | 3.0 | 0.00 | 0.00 | 0.00 | 81 | 990.7 |
| 20260506112153 | 65 | 262 | 5.0 | 7.0 | 0.00 | 0.00 | 0.00 | 80 | 990.7 |
| 20260506111651 | 65 | 234 | 3.0 | 3.0 | 0.00 | 0.00 | 0.00 | 80 | 990.7 |
| 20260506111149 | 65 | 259 | 3.0 | 3.0 | 0.00 | 0.00 | 0.00 | 80 | 990.7 |
| 20260506110646 | 65 | 237 | 5.0 | 7.0 | 0.00 | 0.00 | 0.00 | 80 | 990.8 |
| 20260506110143 | 65 | 105 | 4.0 | 6.0 | 0.00 | 0.00 | 0.00 | 80 | 990.6 |
| 20260506105639 | 65 | 291 | 4.0 | 6.0 | 0.00 | 0.00 | 0.00 | 80 | 990.4 |
| 20260506105136 | 65 | 226 | 6.0 | 7.0 | 0.00 | 0.00 | 0.00 | 79 | 990.3 |
| 20260506104634 | 65 | 243 | 4.0 | 6.0 | 0.00 | 0.00 | 0.00 | 80 | 990.7 |
| 20260506104132 | 65 | 65 | 3.0 | 3.0 | 0.00 | 0.00 | 0.00 | 80 | 990.6 |
| 20260506103629 | 65 | 213 | 2.0 | 3.0 | 0.00 | 0.00 | 0.00 | 80 | 990.6 |
| 20260506103126 | 66 | 240 | 3.0 | 3.0 | 0.00 | 0.00 | 0.00 | 79 | 990.6 |
| 20260506102624 | 66 | 275 | 4.0 | 6.0 | 0.00 | 0.00 | 0.00 | 79 | 990.4 |
| 20260506102121 | 66 | 228 | 4.0 | 5.0 | 0.00 | 0.00 | 0.00 | 79 | 990.3 |
| 20260506101617 | 65 | 181 | 3.0 | 3.0 | 0.00 | 0.00 | 0.00 | 79 | 990.5 |
| 20260506101114 | 66 | 230 | 4.0 | 6.0 | 0.00 | 0.00 | 0.00 | 79 | 990.3 |
| 20260506100613 | 66 | 245 | 4.0 | 6.0 | 0.00 | 0.00 | 0.00 | 78 | 990.3 |
| 20260506100110 | 66 | 269 | 3.0 | 3.0 | 0.00 | 0.00 | 0.00 | 78 | 990.5 |
| 20260506095609 | 66 | 207 | 0.0 | 1.0 | 0.00 | 0.00 | 0.00 | 78 | 990.4 |
| 20260506095105 | 66 | 238 | 8.0 | 10.0 | 0.00 | 0.00 | 0.00 | 78 | 990.4 |
| 20260506094603 | 66 | 239 | 2.0 | 3.0 | 0.00 | 0.00 | 0.00 | 78 | 990.6 |
| 20260506094100 | 66 | 275 | 3.0 | 3.0 | 0.00 | 0.00 | 0.00 | 78 | 990.6 |
| 20260506093559 | 66 | 197 | 1.0 | 2.0 | 0.00 | 0.00 | 0.00 | 78 | 990.2 |
| 20260506093055 | 66 | 264 | 6.0 | 9.0 | 0.00 | 0.00 | 0.00 | 78 | 990.5 |
| 20260506092554 | 66 | 238 | 3.0 | 5.0 | 0.00 | 0.00 | 0.00 | 78 | 990.4 |
| 20260506092050 | 66 | 236 | 5.0 | 7.0 | 0.00 | 0.00 | 0.00 | 78 | 990.4 |
| 20260506091548 | 66 | 207 | 5.0 | 8.0 | 0.00 | 0.00 | 0.00 | 78 | 990.4 |
| 20260506091045 | 66 | 187 | 2.0 | 2.0 | 0.00 | 0.00 | 0.00 | 79 | 990.6 |
| 20260506090543 | 66 | 252 | 3.0 | 3.0 | 0.00 | 0.00 | 0.00 | 78 | 990.4 |
| 20260506090039 | 66 | 236 | 4.0 | 5.0 | 0.00 | 0.00 | 0.00 | 78 | 990.3 |
| 20260506085536 | 66 | 227 | 3.0 | 5.0 | 0.00 | 0.00 | 0.00 | 78 | 990.6 |
| 20260506085032 | 66 | 216 | 3.0 | 3.0 | 0.00 | 0.00 | 0.00 | 78 | 990.5 |
| 20260506084530 | 67 | 249 | 3.0 | 3.0 | 0.00 | 0.00 | 0.00 | 77 | 990.5 |
| 20260506084025 | 67 | 212 | 2.0 | 3.0 | 0.00 | 0.00 | 0.00 | 77 | 990.5 |
| 20260506083523 | 67 | 162 | 3.0 | 5.0 | 0.00 | 0.00 | 0.00 | 77 | 990.4 |
| 20260506083020 | 67 | 208 | 3.0 | 5.0 | 0.00 | 0.00 | 0.00 | 77 | 990.4 |
| 20260506082517 | 67 | 157 | 2.0 | 3.0 | 0.00 | 0.00 | 0.00 | 76 | 990.7 |
| 20260506082013 | 67 | 253 | 3.0 | 3.0 | 0.00 | 0.00 | 0.00 | 76 | 990.6 |
| 20260506081511 | 67 | 340 | 5.0 | 7.0 | 0.00 | 0.00 | 0.00 | 76 | 990.4 |
| 20260506081009 | 67 | 254 | 6.0 | 9.0 | 0.00 | 0.00 | 0.00 | 76 | 990.5 |
| 20260506080506 | 67 | 248 | 5.0 | 8.0 | 0.00 | 0.00 | 0.00 | 75 | 990.6 |
| 20260506073449 | 67 | 235 | 2.0 | 3.0 | 0.00 | 0.00 | 0.00 | 75 | 990.6 |
| 20260506072946 | 67 | 209 | 3.0 | 5.0 | 0.00 | 0.00 | 0.00 | 74 | 990.6 |
| 20260506072443 | 67 | 221 | 3.0 | 5.0 | 0.00 | 0.00 | 0.00 | 74 | 990.6 |
| 20260506071941 | 67 | 180 | 3.0 | 3.0 | 0.00 | 0.00 | 0.00 | 74 | 990.6 |
| 20260506071439 | 67 | 229 | 1.0 | 2.0 | 0.00 | 0.00 | 0.00 | 74 | 990.7 |
| 20260506070935 | 67 | 275 | 5.0 | 7.0 | 0.00 | 0.00 | 0.00 | 73 | 990.8 |
| 20260506070432 | 67 | 256 | 3.0 | 3.0 | 0.00 | 0.00 | 0.00 | 73 | 990.9 |
| 20260506062410 | 68 | 242 | 1.0 | 2.0 | 0.00 | 0.00 | 0.00 | 69 | 991.4 |
| 20260506061906 | 68 | 211 | 4.0 | 6.0 | 0.00 | 0.00 | 0.00 | 69 | 991.4 |
| 20260506061403 | 68 | 253 | 3.0 | 5.0 | 0.00 | 0.00 | 0.00 | 68 | 991.2 |
| 20260506060901 | 68 | 195 | 3.0 | 5.0 | 0.00 | 0.00 | 0.00 | 68 | 991.2 |
| 20260506060358 | 69 | 171 | 4.0 | 5.0 | 0.00 | 0.00 | 0.00 | 67 | 991.3 |
| 20260506051330 | 69 | 197 | 5.0 | 6.0 | 0.00 | 0.00 | 0.00 | 65 | 991.6 |
| 20260506050828 | 69 | 213 | 4.0 | 6.0 | 0.00 | 0.00 | 0.00 | 65 | 991.7 |
| 20260506050325 | 69 | 250 | 2.0 | 3.0 | 0.00 | 0.00 | 0.00 | 65 | 991.6 |
| 20260506044815 | 69 | 253 | 1.0 | 2.0 | 0.00 | 0.00 | 0.00 | 65 | 991.7 |
| 20260506044314 | 69 | 199 | 3.0 | 3.0 | 0.00 | 0.00 | 0.00 | 64 | 991.6 |
| 20260506043810 | 69 | 255 | 4.0 | 7.0 | 0.00 | 0.00 | 0.00 | 65 | 992.0 |
| 20260506043308 | 69 | 229 | 5.0 | 6.0 | 0.00 | 0.00 | 0.00 | 64 | 991.8 |
| 20260506042806 | 69 | 248 | 4.0 | 5.0 | 0.00 | 0.00 | 0.00 | 64 | 991.8 |
| 20260506042305 | 69 | 240 | 3.0 | 5.0 | 0.00 | 0.00 | 0.00 | 64 | 991.9 |
| 20260506041803 | 69 | 203 | 2.0 | 2.0 | 0.00 | 0.00 | 0.00 | 64 | 992.0 |
| 20260506041259 | 69 | 236 | 3.0 | 5.0 | 0.00 | 0.00 | 0.00 | 63 | 991.9 |
| 20260506040757 | 69 | 248 | 3.0 | 3.0 | 0.00 | 0.00 | 0.00 | 63 | 991.7 |
| 20260506040254 | 69 | 241 | 2.0 | 2.0 | 0.00 | 0.00 | 0.00 | 63 | 991.6 |
| 20260506035750 | 69 | 214 | 1.0 | 1.0 | 0.00 | 0.00 | 0.00 | 63 | 991.7 |
| 20260506035247 | 69 | 193 | 1.0 | 2.0 | 0.00 | 0.00 | 0.00 | 64 | 991.8 |
| 20260506034744 | 69 | 215 | 3.0 | 5.0 | 0.00 | 0.00 | 0.00 | 63 | 991.7 |
| 20260506034242 | 70 | 146 | 1.0 | 1.0 | 0.00 | 0.00 | 0.00 | 63 | 991.5 |
| 20260506033738 | 70 | 194 | 1.0 | 2.0 | 0.00 | 0.00 | 0.00 | 62 | 991.7 |
| 20260506033236 | 69 | 239 | 1.0 | 1.0 | 0.00 | 0.00 | 0.00 | 63 | 991.8 |
| 20260506032732 | 70 | 235 | 2.0 | 5.0 | 0.00 | 0.00 | 0.00 | 62 | 991.7 |
| 20260506032229 | 70 | 256 | 4.0 | 5.0 | 0.00 | 0.00 | 0.00 | 62 | 991.9 |
| 20260506031726 | 70 | 198 | 2.0 | 2.0 | 0.00 | 0.00 | 0.00 | 62 | 991.7 |
| 20260506031223 | 70 | 224 | 4.0 | 7.0 | 0.00 | 0.00 | 0.00 | 61 | 991.6 |
| 20260506030722 | 70 | 225 | 3.0 | 5.0 | 0.00 | 0.00 | 0.00 | 61 | 991.7 |
| 20260506030219 | 70 | 189 | 6.0 | 8.0 | 0.00 | 0.00 | 0.00 | 60 | 991.7 |
| 20260506025715 | 70 | 212 | 1.0 | 2.0 | 0.00 | 0.00 | 0.00 | 60 | 991.8 |
| 20260506025212 | 70 | 193 | 3.0 | 3.0 | 0.00 | 0.00 | 0.00 | 60 | 991.6 |
| 20260506024709 | 70 | 177 | 1.0 | 1.0 | 0.00 | 0.00 | 0.00 | 59 | 991.7 |
| 20260506024205 | 70 | 174 | 1.0 | 1.0 | 0.00 | 0.00 | 0.00 | 60 | 991.7 |
| 20260506023702 | 71 | 163 | 3.0 | 3.0 | 0.00 | 0.00 | 0.00 | 58 | 991.8 |
| 20260506023159 | 71 | 227 | 3.0 | 6.0 | 0.00 | 0.00 | 0.00 | 59 | 991.7 |
| 20260506022656 | 71 | 244 | 2.0 | 2.0 | 0.00 | 0.00 | 0.00 | 58 | 991.8 |
| 20260506022153 | 71 | 203 | 3.0 | 5.0 | 0.00 | 0.00 | 0.00 | 57 | 991.8 |
| 20260506021651 | 71 | 248 | 0.0 | 0.0 | 0.00 | 0.00 | 0.00 | 58 | 991.7 |
| 20260506021148 | 71 | 206 | 1.0 | 1.0 | 0.00 | 0.00 | 0.00 | 58 | 991.8 |
| 20260506020645 | 72 | 113 | 1.0 | 1.0 | 0.00 | 0.00 | 0.00 | 57 | 992.0 |
| 20260506020143 | 72 | 200 | 1.0 | 2.0 | 0.00 | 0.00 | 0.00 | 56 | 991.6 |
| 20260506015640 | 72 | 257 | 1.0 | 2.0 | 0.00 | 0.00 | 0.00 | 57 | 991.8 |
| 20260506015137 | 72 | 194 | 2.0 | 3.0 | 0.00 | 0.00 | 0.00 | 56 | 991.5 |
| 20260506014635 | 72 | 240 | 2.0 | 3.0 | 0.00 | 0.00 | 0.00 | 56 | 991.5 |
| 20260506014130 | 72 | 234 | 4.0 | 6.0 | 0.00 | 0.00 | 0.00 | 55 | 991.4 |
| 20260506013629 | 73 | 214 | 4.0 | 5.0 | 0.00 | 0.00 | 0.00 | 54 | 991.5 |
| 20260506013125 | 73 | 267 | 4.0 | 5.0 | 0.00 | 0.00 | 0.00 | 53 | 991.4 |
| 20260506012621 | 73 | 161 | 2.0 | 3.0 | 0.00 | 0.00 | 0.00 | 54 | 991.5 |
| 20260506012118 | 73 | 230 | 1.0 | 1.0 | 0.00 | 0.00 | 0.00 | 53 | 991.4 |
| 20260506011616 | 73 | 233 | 1.0 | 2.0 | 0.00 | 0.00 | 0.00 | 53 | 991.2 |
| 20260506011112 | 73 | 209 | 2.0 | 3.0 | 0.00 | 0.00 | 0.00 | 53 | 991.2 |
| 20260506010606 | 74 | 270 | 3.0 | 5.0 | 0.00 | 0.00 | 0.00 | 52 | 991.2 |
| 20260506005559 | 74 | 230 | 3.0 | 3.0 | 0.00 | 0.00 | 0.00 | 52 | 991.2 |
| 20260506005055 | 74 | 201 | 2.0 | 2.0 | 0.00 | 0.00 | 0.00 | 51 | 991.1 |
| 20260506004552 | 74 | 227 | 2.0 | 2.0 | 0.00 | 0.00 | 0.00 | 51 | 990.9 |
| 20260506004049 | 74 | 158 | 1.0 | 2.0 | 0.00 | 0.00 | 0.00 | 51 | 990.8 |
| 20260506003545 | 74 | 224 | 2.0 | 2.0 | 0.00 | 0.00 | 0.00 | 51 | 990.8 |
| 20260506003042 | 75 | 229 | 3.0 | 3.0 | 0.00 | 0.00 | 0.00 | 50 | 990.8 |
| 20260506002537 | 75 | 236 | 3.0 | 3.0 | 0.00 | 0.00 | 0.00 | 48 | 990.7 |
| 20260506002034 | 75 | 231 | 2.0 | 3.0 | 0.00 | 0.00 | 0.00 | 48 | 990.7 |
| 20260506001530 | 75 | 204 | 3.0 | 3.0 | 0.00 | 0.00 | 0.00 | 48 | 990.9 |
| 20260506001027 | 76 | 261 | 4.0 | 5.0 | 0.00 | 0.00 | 0.00 | 49 | 990.7 |
| 20260506000525 | 76 | 245 | 3.0 | 3.0 | 0.00 | 0.00 | 0.00 | 48 | 990.6 |
| 20260506000022 | 76 | 229 | 3.0 | 3.0 | 0.00 | 0.00 | 0.00 | 48 | 990.7 |
| 20260505235520 | 76 | 240 | 3.0 | 3.0 | 0.00 | 0.00 | 0.00 | 48 | 990.8 |
| 20260505235016 | 76 | 244 | 3.0 | 3.0 | 0.00 | 0.00 | 0.00 | 48 | 990.4 |
| 20260505234514 | 76 | 250 | 4.0 | 6.0 | 0.00 | 0.00 | 0.00 | 48 | 990.5 |
| 20260505234010 | 77 | 232 | 2.0 | 2.0 | 0.00 | 0.00 | 0.00 | 47 | 990.6 |
| 20260505233508 | 77 | 147 | 2.0 | 2.0 | 0.00 | 0.00 | 0.00 | 47 | 990.4 |
| 20260505233005 | 77 | 248 | 2.0 | 2.0 | 0.00 | 0.00 | 0.00 | 47 | 990.3 |
| 20260505232503 | 77 | 262 | 3.0 | 5.0 | 0.00 | 0.00 | 0.00 | 46 | 990.5 |
| 20260505232000 | 77 | 202 | 4.0 | 6.0 | 0.00 | 0.00 | 0.00 | 45 | 990.4 |
| 20260505231457 | 77 | 212 | 0.0 | 1.0 | 0.00 | 0.00 | 0.00 | 47 | 990.3 |
| 20260505230955 | 77 | 235 | 2.0 | 3.0 | 0.00 | 0.00 | 0.00 | 46 | 990.1 |
| 20260505230453 | 78 | 253 | 1.0 | 1.0 | 0.00 | 0.00 | 0.00 | 46 | 990.3 |
| 20260505225949 | 78 | 242 | 3.0 | 3.0 | 0.00 | 0.00 | 0.00 | 46 | 990.4 |
| 20260505225446 | 78 | 242 | 6.0 | 8.0 | 0.00 | 0.00 | 0.00 | 45 | 990.4 |
| 20260505224942 | 78 | 219 | 2.0 | 3.0 | 0.00 | 0.00 | 0.00 | 46 | 990.4 |
| 20260505224439 | 78 | 249 | 3.0 | 5.0 | 0.00 | 0.00 | 0.00 | 45 | 990.3 |
| 20260505223936 | 78 | 232 | 4.0 | 5.0 | 0.00 | 0.00 | 0.00 | 45 | 990.2 |
| 20260505223433 | 78 | 242 | 4.0 | 6.0 | 0.00 | 0.00 | 0.00 | 45 | 990.2 |
| 20260505222930 | 78 | 189 | 4.0 | 6.0 | 0.00 | 0.00 | 0.00 | 44 | 990.4 |
| 20260505222426 | 79 | 245 | 10.0 | 13.0 | 0.00 | 0.00 | 0.00 | 44 | 990.4 |
| 20260505221922 | 79 | 273 | 6.0 | 8.0 | 0.00 | 0.00 | 0.00 | 45 | 990.4 |
| 20260505221419 | 79 | 278 | 7.0 | 10.0 | 0.00 | 0.00 | 0.00 | 44 | 990.2 |
| 20260505220916 | 79 | 200 | 5.0 | 7.0 | 0.00 | 0.00 | 0.00 | 44 | 990.3 |
| 20260505220413 | 79 | 273 | 10.0 | 11.0 | 0.00 | 0.00 | 0.00 | 43 | 990.1 |
| 20260505215911 | 78 | 226 | 6.0 | 9.0 | 0.00 | 0.00 | 0.00 | 44 | 990.3 |
| 20260505215409 | 79 | 265 | 4.0 | 7.0 | 0.00 | 0.00 | 0.00 | 45 | 990.2 |
| 20260505214907 | 79 | 270 | 6.0 | 8.0 | 0.00 | 0.00 | 0.00 | 45 | 990.1 |
| 20260505214404 | 79 | 241 | 7.0 | 10.0 | 0.00 | 0.00 | 0.00 | 44 | 990.1 |
| 20260505213901 | 80 | 191 | 1.0 | 2.0 | 0.00 | 0.00 | 0.00 | 45 | 990.1 |
| 20260505213359 | 80 | 268 | 4.0 | 6.0 | 0.00 | 0.00 | 0.00 | 45 | 990.1 |
| 20260505212855 | 80 | 281 | 5.0 | 6.0 | 0.00 | 0.00 | 0.00 | 43 | 990.2 |
| 20260505212352 | 81 | 177 | 3.0 | 5.0 | 0.00 | 0.00 | 0.00 | 43 | 990.1 |
| 20260505211848 | 81 | 206 | 11.0 | 13.0 | 0.00 | 0.00 | 0.00 | 41 | 990.0 |
| 20260505211346 | 81 | 243 | 5.0 | 7.0 | 0.00 | 0.00 | 0.00 | 43 | 990.2 |
| 20260505210842 | 81 | 210 | 2.0 | 3.0 | 0.00 | 0.00 | 0.00 | 43 | 990.1 |
| 20260505210339 | 80 | 225 | 3.0 | 5.0 | 0.00 | 0.00 | 0.00 | 43 | 990.1 |
| 20260505205835 | 81 | 236 | 6.0 | 7.0 | 0.00 | 0.00 | 0.00 | 42 | 990.1 |
| 20260505205334 | 80 | 234 | 4.0 | 7.0 | 0.00 | 0.00 | 0.00 | 44 | 990.0 |
| 20260505204830 | 80 | 217 | 7.0 | 11.0 | 0.00 | 0.00 | 0.00 | 42 | 990.4 |
| 20260505204328 | 81 | 251 | 7.0 | 10.0 | 0.00 | 0.00 | 0.00 | 41 | 990.2 |
| 20260505203826 | 81 | 238 | 3.0 | 5.0 | 0.00 | 0.00 | 0.00 | 42 | 990.1 |
| 20260505203322 | 80 | 248 | 5.0 | 6.0 | 0.00 | 0.00 | 0.00 | 42 | 990.0 |
| 20260505202818 | 81 | 246 | 9.0 | 14.0 | 0.00 | 0.00 | 0.00 | 42 | 990.0 |
| 20260505202314 | 81 | 229 | 8.0 | 9.0 | 0.00 | 0.00 | 0.00 | 42 | 990.2 |
| 20260505201811 | 81 | 266 | 3.0 | 3.0 | 0.00 | 0.00 | 0.00 | 44 | 990.3 |
| 20260505201309 | 81 | 198 | 8.0 | 14.0 | 0.00 | 0.00 | 0.00 | 42 | 990.1 |
| 20260505200807 | 80 | 201 | 4.0 | 5.0 | 0.00 | 0.00 | 0.00 | 41 | 990.3 |
| 20260505200304 | 80 | 232 | 7.0 | 8.0 | 0.00 | 0.00 | 0.00 | 43 | 990.5 |
| 20260505195759 | 81 | 219 | 2.0 | 3.0 | 0.00 | 0.00 | 0.00 | 42 | 990.4 |
| 20260505195257 | 81 | 231 | 5.0 | 6.0 | 0.00 | 0.00 | 0.00 | 42 | 990.3 |
| 20260505194753 | 81 | 246 | 6.0 | 8.0 | 0.00 | 0.00 | 0.00 | 42 | 990.4 |
| 20260505194250 | 82 | 262 | 6.0 | 8.0 | 0.00 | 0.00 | 0.00 | 41 | 990.3 |
| 20260505193746 | 81 | 247 | 7.0 | 9.0 | 0.00 | 0.00 | 0.00 | 42 | 990.3 |
| 20260505193244 | 81 | 209 | 9.0 | 11.0 | 0.00 | 0.00 | 0.00 | 42 | 990.5 |
| 20260505192742 | 81 | 220 | 4.0 | 7.0 | 0.00 | 0.00 | 0.00 | 42 | 990.6 |
| 20260505192239 | 81 | 237 | 6.0 | 7.0 | 0.00 | 0.00 | 0.00 | 41 | 990.8 |
| 20260505191737 | 81 | 245 | 10.0 | 15.0 | 0.00 | 0.00 | 0.00 | 41 | 990.7 |
| 20260505191236 | 81 | 253 | 9.0 | 10.0 | 0.00 | 0.00 | 0.00 | 40 | 990.6 |
| 20260505190731 | 81 | 257 | 7.0 | 8.0 | 0.00 | 0.00 | 0.00 | 41 | 990.8 |
| 20260505190231 | 81 | 226 | 8.0 | 10.0 | 0.00 | 0.00 | 0.00 | 42 | 990.8 |
| 20260505185728 | 81 | 182 | 3.0 | 3.0 | 0.00 | 0.00 | 0.00 | 40 | 990.6 |
| 20260505185225 | 82 | 241 | 4.0 | 6.0 | 0.00 | 0.00 | 0.00 | 43 | 990.8 |
| 20260505184720 | 82 | 217 | 6.0 | 8.0 | 0.00 | 0.00 | 0.00 | 40 | 991.0 |
| 20260505184218 | 81 | 250 | 4.0 | 5.0 | 0.00 | 0.00 | 0.00 | 41 | 990.9 |
| 20260505183715 | 82 | 219 | 5.0 | 7.0 | 0.00 | 0.00 | 0.00 | 39 | 990.9 |
| 20260505183213 | 81 | 254 | 2.0 | 2.0 | 0.00 | 0.00 | 0.00 | 40 | 990.9 |
| 20260505182708 | 81 | 180 | 5.0 | 8.0 | 0.00 | 0.00 | 0.00 | 40 | 991.0 |
| 20260505182206 | 81 | 230 | 7.0 | 9.0 | 0.00 | 0.00 | 0.00 | 41 | 990.8 |
| 20260505181702 | 81 | 207 | 2.0 | 7.0 | 0.00 | 0.00 | 0.00 | 41 | 991.0 |
| 20260505181200 | 82 | 249 | 6.0 | 8.0 | 0.00 | 0.00 | 0.00 | 41 | 991.2 |
| 20260505180655 | 82 | 289 | 6.0 | 8.0 | 0.00 | 0.00 | 0.00 | 40 | 991.1 |
| 20260505180153 | 82 | 239 | 3.0 | 3.0 | 0.00 | 0.00 | 0.00 | 45 | 991.2 |
| 20260505175649 | 81 | 274 | 4.0 | 6.0 | 0.00 | 0.00 | 0.00 | 45 | 991.3 |
| 20260505175145 | 82 | 264 | 7.0 | 8.0 | 0.00 | 0.00 | 0.00 | 44 | 991.5 |
| 20260505174642 | 82 | 188 | 4.0 | 5.0 | 0.00 | 0.00 | 0.00 | 45 | 991.2 |
| 20260505174138 | 81 | 283 | 4.0 | 5.0 | 0.00 | 0.00 | 0.00 | 47 | 991.6 |
| 20260505173635 | 82 | 277 | 2.0 | 3.0 | 0.00 | 0.00 | 0.00 | 46 | 991.5 |
| 20260505173132 | 83 | 228 | 3.0 | 7.0 | 0.00 | 0.00 | 0.00 | 47 | 991.4 |